Regional Weather Roundup
Issued by NWS

Home | Current Version | Previous Version | Text Only | Print | Product List | Glossary On
Versions: 1 2 3 4 5 6 7 8 9 10 11 12 13 14 15 16 17 18 19 20 21 22 23 24 25 26 27 28 29 30 31 32 33 34 35 36 37 38 39 40 41 42 43 44 45 46 47 48 49 50
000
ASUS43 KMPX 251401
RWRMN
WEATHER ROUNDUP FOR MINNESOTA
NATIONAL WEATHER SERVICE TWIN CITIES/CHANHASSEN MN
900 AM CDT MON JUL 25 2016


NOTE: "FAIR" INDICATES FEW OR NO CLOUDS BELOW 12,000 FEET WITH NO
SIGNIFICANT WEATHER AND/OR OBSTRUCTIONS TO VISIBILITY. N/A MEANS
CURRENT SKY AND/OR WEATHER CONDITIONS ARE NOT AVAILABLE.

MNZ060>063-068>070-251500-
   Twin Cities Metro

CITY           SKY/WX    TMP DP  RH WIND       PRES   REMARKS
TWIN CITIES    SUNNY     75  61  61 W7        30.07R
ST PAUL        SUNNY     75  61  61 NW7       30.07R
CRYSTAL        SUNNY     75  60  59 NW9       30.06R
BLAINE         SUNNY     75  63  64 NW6       30.07R
LAKEVILLE      SUNNY     72  63  73 W7        30.08R
EDEN PRAIRIE   SUNNY     76  62  62 NW7       30.06S
LAKEVILLE      SUNNY     72  63  73 W7        30.08R
SOUTH ST PAUL  SUNNY     74  62  65 W6        30.07R
LAKE ELMO      FAIR      72  63  73 NW7       30.07S
$$
MNZ001>005-007-008-013>017-022>024-027-028-251500-
   Northwest Minnesota

CITY           SKY/WX    TMP DP  RH WIND       PRES   REMARKS
HALLOCK        SUNNY     68  63  83 CALM      29.99S
ROSEAU         SUNNY     70  64  83 W6        30.00S
WARROAD        SUNNY     68  64  88 SW6       30.00S
THIEF RVR FALL SUNNY     68  62  81 CALM      30.03F
CROOKSTON      SUNNY     70  61  73 CALM      30.03R
FOSSTON        SUNNY     66  61  82 CALM      30.05S
DETROIT LAKES  SUNNY     70  59  68 CALM      30.08R
MOORHEAD       SUNNY     68  61  77 CALM      30.06R
PARK RAPIDS    SUNNY     71  61  70 VRB3      30.06S
MAHNOMEN       FAIR      67  61  80 CALM      30.04S
$$
MNZ006-009>011-018-025>026-251500-
   North Central Minnesota

CITY           SKY/WX    TMP DP  RH WIND       PRES   REMARKS
BAUDETTE       SUNNY     70  62  76 W7        30.00R
FLAG ISLAND    SUNNY     70  59  68 W5        29.97S
INTL FALLS     SUNNY     69  63  81 W8        30.00R
WASKISH        SUNNY     72  64  78 W6        30.02S
BIG FORK       SUNNY     70  61  73 CALM      30.03R
LONGVILLE      SUNNY     70  63  78 CALM      30.05S
GRAND RAPIDS   SUNNY     70  63  78 NW8       30.06R
ORR            SUNNY     68  59  73 NW6       29.99R
COOK           SUNNY     68  61  77 W8        30.02R
WALKER         FAIR      69  61  76 W3        30.05S
$$
MNZ012-019>021-037-251500-
   Northeast Minnesota

CITY           SKY/WX    TMP DP  RH WIND       PRES   REMARKS
DULUTH         MOSUNNY   71  62  73 NW10      30.02R
ELY            MOSUNNY   68  57  68 W12       30.00R
HIBBING        SUNNY     68  60  75 NW12      30.03R
EVELETH        MOSUNNY   69  60  72 W8        30.03R
DULUTH HARBOR  SUNNY     72  64  78 W8        30.01S
TWO HARBORS    SUNNY     73  63  68 NW3       29.99R
SILVER BAY     SUNNY     73  59  60 W5        29.97R
GRAND MARAIS     N/A     68  53  58 VRB6      29.92R
G MARAIS ARPRT SUNNY     66  54  63 NW9G18    29.95S
$$
MNZ029>031-032-039>041-046>048-054>057-064-251500-
   West Central Minnesota

CITY           SKY/WX    TMP DP  RH WIND       PRES   REMARKS
FERGUS FALLS   SUNNY     70  61  73 CALM      30.08S
WHEATON        SUNNY     73  66  78 W5        30.09R
MORRIS         SUNNY     73  63  68 CALM      30.08R
ALEXANDRIA     SUNNY     72  59  63 W5        30.10S
ELBOW LAKE     FAIR      70  62  75 CALM      30.08S
GLENWOOD       SUNNY     72  63  73 CALM      30.10R
APPLETON       SUNNY     72  63  73 NW3       30.09R
BENSON         SUNNY     72  61  68 CALM      30.09R
ORTONVILLE     SUNNY     75  61  60 CALM      30.09R
MADISON        SUNNY     73  61  64 CALM      30.09R
WILLMAR        FAIR      72  64  78 CALM      30.11R
$$
MNZ033>034-036-042>043-049>051-058-059-251500-
   Central Minnesota

CITY           SKY/WX    TMP DP  RH WIND       PRES   REMARKS
ST CLOUD       SUNNY     73  63  70 VRB5      30.08R
SAUK CENTRE    FAIR      71  62  72 W3        30.10R
PAYNESVILLE    SUNNY     70  63  79 W3        30.10R
AITKIN         SUNNY     73  61  64 W5        30.05R
PINE RIVER     SUNNY     70  61  73 CALM      30.09S
BRAINERD       SUNNY     70  61  73 NW6       30.07R
STAPLES        SUNNY     70  61  73 W5        30.07S
LONG PRAIRIE   FAIR      70  59  68 SW5       30.09S
LITTLE FALLS   SUNNY     70  59  68 NW3       30.08R
LITCHFIELD     SUNNY     73  64  73 NW5       30.10R
BUFFALO        SUNNY     73  61  67 NW5       30.09R
MAPLE LAKE     SUNNY     73  65  75 W3        30.09S
HUTCHINSON     SUNNY     72  65  77 NW5       30.10R
$$
MNZ037-044-045-052-053-251500-
   East Central Minnesota

CITY           SKY/WX    TMP DP  RH WIND       PRES   REMARKS
PRINCETON      SUNNY     73  63  68 W3        30.07R
MORA           SUNNY     70  61  73 CALM      30.07R
CAMBRIDGE      SUNNY     73  61  64 W3        30.05R
RUSH CITY      SUNNY     71  63  75 W3        30.06R
MOOSE LAKE     SUNNY     70  63  78 W6        30.03R
HINCKLEY       FAIR      72  64  78 W5        30.06R
CLOQUET        SUNNY     72  61  68 W6        30.03S
MCGREGOR       SUNNY     70  63  78 W6        30.06R
$$
MNZ071>073-080-081-089-090-097-098-251500-
   Southwest Minnesota

CITY           SKY/WX    TMP DP  RH WIND       PRES   REMARKS
MONTEVIDEO     SUNNY     75  64  69 CALM      30.11R
GRANITE FALLS  SUNNY     72  65  77 CALM      30.11S
CANBY          SUNNY     76  63  63 CALM      30.11S
MARSHALL       SUNNY     74  62  66 CALM      30.11R
REDWOOD FALLS  SUNNY     72  61  68 CALM      30.10R
OLIVIA         SUNNY     70  63  78 CALM      30.09S
PIPESTONE      SUNNY     72  61  68 W3        30.13F
WINDOM         SUNNY     73  63  68 W3        30.13R
WORTHINGTON    SUNNY     74  64  71 CALM      30.14S
JACKSON        SUNNY     72  61  68 NW3       30.13S
SLAYTON        SUNNY     74  62  66 CALM      30.14R
$$
MNZ065>067-074>077-082>085-091>093-251500-
   South Central Minnesota

CITY           SKY/WX    TMP DP  RH WIND       PRES   REMARKS
MANKATO        SUNNY     70  61  73 W6        30.10R
NEW ULM        SUNNY     70  64  83 W5        30.10R
ST JAMES       SUNNY     66  59  77 CALM      30.12R
FAIRMONT       SUNNY     73  61  64 W6        30.11R
GLENCOE        SUNNY     72  67  83 NW3       30.08S
FARIBAULT      SUNNY     73  66  78 W5        30.09S
OWATONNA       SUNNY     72  64  78 NW5       30.09S
WASECA         SUNNY     70  64  83 W6        30.11S
ALBERT LEA     SUNNY     72  64  78 CALM      30.11R
$$
MNZ078>079-086>088-094>096-251500-
   Southeast Minnesota

CITY           SKY/WX    TMP DP  RH WIND       PRES   REMARKS
ROCHESTER      SUNNY     72  65  78 W6        30.09R
RED WING       SUNNY     73  63  68 W6        30.05S
STANTON        SUNNY     72  64  78 W3        30.07R
DODGE CENTER   SUNNY     73  64  73 W7        30.10R
WINONA         SUNNY     73  63  68 NW5       30.06R
AUSTIN         SUNNY     72  63  73 W7        30.10R
PRESTON        SUNNY     71  62  73 W7        30.09S
$$
ABBREVIATIONS USED IN REMARKS
   TC - TEMPERATURES IN CELSIUS
  WCI - WIND CHILL INDEX
   HX - HEAT INDEX
  VSB - VISIBILITY
$$




USA.gov is the U.S. government's official web portal to all federal, state and local government web resources and services.